User: anonymous   Login
Location: Plainartige
(45.6866°N, 1.7993°E)
Time: 18:43:55
(UTC+00:00)
Language:

SL-08 R/B - Orbit

View from above orbital plane
View from above orbital plane
View from above satellite
View from above satellite

Ground track
Ground track

The orbit data is extracted from the following two-line orbital elements,

1 27819U 03023B   21213.40620781 -.00000000  00000-0 -16490-4 0  9998
2 27819  82.9493 351.2161 0046342 184.2427 198.0739 13.74247145910746
Epoch (UTC): 01 August 2021 09:44:56
Eccentricity: 0.0046342
inclination: 82.9493°
perigee height: 950 km
apogee height: 1018 km
right ascension of ascending node: 351.2161°
argument of perigee: 184.2427°
revolutions per day: 13.74247145
mean anomaly at epoch: 198.0739°
orbit number at epoch: 91074

The dashed part of the orbit path shows where the satellite is in the earth's shadow,  

DLR